Regional Weather Roundup
Issued by NWS Grand Forks, ND

Home | Current Version | Previous Version | Graphics & Text | Print | Product List | Glossary On
Versions: 1 2 3 4 5 6 7 8 9 10 11 12 13 14 15 16 17 18 19 20 21 22 23 24 25 26 27 28 29 30 31 32 33 34 35 36 37 38 39 40 41 42 43 44 45 46 47 48 49 50
000
ASUS43 KFGF 051210
RWRFGF
PRAIRIE TO PINES  WEATHER ROUNDUP
NATIONAL WEATHER SERVICE EASTERN NORTH DAKOTA/GRAND FORKS ND
700 AM CDT TUE MAY 05 2015

 **SATELLITE DATA USED TO AUGMENT SKY COVER AT AUTOMATED STATIONS**
 *****  WEATHER ACROSS EASTERN NORTH DAKOTA  *****

CITY           SKY/WX    TMP DP  RH WIND       PRES   REMARKS
GRAND FORKS    PTCLDY    40  29  64 S6        30.17R
6HR MIN TEMP:  36; 6HR MAX TEMP:  48;

GRAND FRKS AFB FAIR      38  26  61 S8        30.16R
GRAND FRKS NWS   N/A     43 N/A N/A S7          N/A
DEVILS LAKE    CLOUDY    54  34  47 S10       30.13R
6HR MIN TEMP:  46; 6HR MAX TEMP:  54;

FARGO          CLEAR     48  31  51 SE8       30.18R
WAHPETON ARPT  SUNNY     45  30  57 E5        30.18F
$$

 ***** WEATHER ACROSS CENTRAL AND WESTERN NORTH DAKOTA  *****

CITY           SKY/WX    TMP DP  RH WIND       PRES   REMARKS
BISMARCK       CLOUDY    51  30  44 SE12      30.06F
6HR MIN TEMP:  50; 6HR MAX TEMP:  53;

MINOT          MOCLDY    53  29  39 SE12      30.03S
6HR MIN TEMP:  52; 6HR MAX TEMP:  55;

JAMESTOWN      PTCLDY    48  29  47 S8        30.14S
6HR MIN TEMP:  43; 6HR MAX TEMP:  50;

MINOT AFB      PTCLDY    52  31  45 S14       30.02S
GARRISON         N/A     52  31  44 SE13      30.02F
WILLISTON      CLEAR     50  28  42 VRB3      29.95F
6HR MIN TEMP:  49; 6HR MAX TEMP:  54;

DICKINSON      CLEAR     40  29  64 SE9       29.97F
6HR MIN TEMP:  39; 6HR MAX TEMP:  48;

HETTINGER      CLEAR     44  29  55 SE9       30.01F
6HR MIN TEMP:  43; 6HR MAX TEMP:  51;

$$

 *****  OTHER AIRPORT OBSERVATIONS IN OUR AREA  *****

CITY           SKY/WX    TMP DP  RH WIND       PRES   REMARKS
WALHALLA       FAIR      54  27  35 S10       30.13R
GRAFTON AIRPOR FAIR      37  28  70 S8        30.17R
VALLEY CITY AR FAIR      45  30  57 S6        30.16F
CANDO          CLOUDY    52  32  46 S10       30.12S
CAVALIER APRT  FAIR      45  28  53 S8        30.14S
GWINNER        SUNNY     45  32  61 E6        30.18S
SHEYENNE NWR     N/A     39  28  64 E3        29.95S
ROLLA          NOT AVBL
 ***** THE ABOVE OBSERVATIONS ARE NON NWS ARE NOT QUALITY
       CONTROLLED AND MAY MIS-REPORT RAIN FOR SNOW...
$$

  *****  WEATHER ACROSS NORTHERN MINNESOTA  *****

CITY           SKY/WX    TMP DP  RH WIND       PRES   REMARKS
FLAG ISLAND    CLEAR     48  39  71 S8        30.18R
WARROAD        CLEAR     46  30  53 S3        30.19S
ROSEAU         CLEAR     45  30  57 S6        30.19R
HALLOCK        CLEAR     41  25  52 S9        30.16R
THF RVR FALLS  CLEAR     45  27  49 SE7       30.20R
6HR MIN TEMP:  43; 6HR MAX TEMP:  52;

BAUDETTE       CLEAR     38  31  76 SE6       30.21S
6HR MIN TEMP:  36; 6HR MAX TEMP:  42;

WASKISH        FAIR      43  30  61 CALM      30.22R
CROOKSTON      CLEAR     43  30  61 S9        30.19R
$$
  *****  WEATHER ACROSS CENTRAL AND WEST MINNESOTA  *****

CITY           SKY/WX    TMP DP  RH WIND       PRES   REMARKS
FOSSTON        CLEAR     48  23  37 SE7       30.21R
BEMIDJI        CLEAR     33  29  83 CALM      30.23R
PARK RAPIDS    CLEAR     36  31  82 CALM      30.22R
6HR MIN TEMP:  33; 6HR MAX TEMP:  45;

ELBOW LAKE     FAIR      50  30  46 E9        30.18F
6HR MIN TEMP:  49; 6HR MAX TEMP:  54;

WADENA         CLEAR     37  28  70 CALM      30.21S
DETROIT LAKES  CLEAR     48  28  46 SE5       30.21S
MOORHEAD       CLEAR     46  28  49 SE6       30.19S
FERGUS FALLS   CLEAR     52  27  37 E7        30.20S
MORRIS MN      CLEAR     45  28  53 E9        30.17S
STAPLES        CLEAR     36  30  80 CALM      30.22R
$$
  *****  WEATHER ELSEWHERE ACROSS MINNESOTA  *****

CITY           SKY/WX    TMP DP  RH WIND       PRES   REMARKS
DULUTH         SUNNY     45  27  49 E5        30.26R
6HR MIN TEMP:  34; 6HR MAX TEMP:  45;

INTRNTL FALLS  SUNNY     35  29  78 SE3       30.23S
6HR MIN TEMP:  28; 6HR MAX TEMP:  35;

ELY            SUNNY     30  28  93 CALM      30.27R
CLOQUET        SUNNY     36  28  75 CALM      30.26R
WHEATON        FAIR      39  28  65 CALM      30.20R
BRAINERD       CLEAR     36  34  92 CALM      30.23S
6HR MIN TEMP:  32; 6HR MAX TEMP:  39;

HIBBING        SUNNY     32  26  78 CALM      30.26R
6HR MIN TEMP:  25; 6HR MAX TEMP:  35;

ALEXANDRIA     CLEAR     48  27  44 E7        30.21R
6HR MIN TEMP:  46; 6HR MAX TEMP:  52;

SAINT CLOUD    CLEAR     49  25  39 E6        30.21R
6HR MIN TEMP:  47; 6HR MAX TEMP:  52;

MINNEAPOLIS    PTCLDY    53  35  50 NE8       30.19R
6HR MIN TEMP:  51; 6HR MAX TEMP:  57;

$$

  *****  WEATHER ACROSS SOUTH DAKOTA  *****

CITY           SKY/WX    TMP DP  RH WIND       PRES   REMARKS
SIOUX FALLS    CLOUDY    46  35  65 NE3       30.11S
6HR MIN TEMP:  44; 6HR MAX TEMP:  51;

BROOKINGS      PTCLDY    48  28  46 E7        30.15S
WATERTOWN      CLEAR     50  26  39 E7        30.15S
6HR MIN TEMP:  50; 6HR MAX TEMP:  56;

HURON          MOCLDY    44  33  65 E7        30.12S
6HR MIN TEMP:  42; 6HR MAX TEMP:  54;

SISSETON         N/A     38  28  67 CALM      30.17S
ABERDEEN       MOCLDY    45  33  63 CALM      30.14S
6HR MIN TEMP:  43; 6HR MAX TEMP:  52;

MITCHELL       MOCLDY    46  34  62 CALM      30.11S
PIERRE         PTCLDY    51  37  58 E10       30.06S
6HR MIN TEMP:  49; 6HR MAX TEMP:  55;

MOBRIDGE       PTCLDY    54  34  46 SE13      30.05S
RAPID CITY     CLEAR     38  34  85 SE8       30.00F
6HR MIN TEMP:  38; 6HR MAX TEMP:  48;

$$

  *****  SOME WEATHER IN NEARBY STATES *****

CITY           SKY/WX    TMP DP  RH WIND       PRES   REMARKS
GLASGOW MT     CLEAR     44  34  67 E15       29.82S
6HR MIN TEMP:  44; 6HR MAX TEMP:  53;

GREAT FALLS MT PTCLDY    44  33  65 S12       29.76R
6HR MIN TEMP:  41; 6HR MAX TEMP:  56;

CHEYENNE WY    FOG       43  42  97 S9        30.00F VSB 1/4
6HR MIN TEMP:  43; 6HR MAX TEMP:  44;

SCOTTSBLUFF NE CLOUDY    47  45  93 SE10      30.02F
6HR MIN TEMP:  47; 6HR MAX TEMP:  49;

OMAHA NE       CLOUDY    60  58  92 E3        30.06S FOG
6HR MIN TEMP:  57; 6HR MAX TEMP:  61;

DES MOINES IA  FOG       62  61  96 S8        30.10R VSB 1
6HR MIN TEMP:  62; 6HR MAX TEMP:  64; 6HR PCP:  0.03;

DAVENPORT IA   CLOUDY    57  55  93 E10       30.14R FOG
6HR MIN TEMP:  57; 6HR MAX TEMP:  63; 6HR PCP:  0.62;

CHICAGO IL     LGT RAIN  50  49  96 NE9       30.20F FOG
6HR MIN TEMP:  49; 6HR MAX TEMP:  56; 6HR PCP:  0.93;

EAU CLAIRE WI  PTSUNNY   49  38  65 NE7       30.23R
6HR MIN TEMP:  46; 6HR MAX TEMP:  49;

LA CROSSE WI   CLOUDY    57  41  55 SE3       30.21R
6HR MIN TEMP:  53; 6HR MAX TEMP:  59;

$$

  *****  SOME NATIONAL WEATHER *****

CITY           SKY/WX    TMP DP  RH WIND       PRES   REMARKS
LA GUARDIA NY  MOSUNNY   70  49  47 CALM      30.19R
6HR MIN TEMP:  65; 6HR MAX TEMP:  71;

RALEIGH NC     MOSUNNY   62  56  80 SW7       30.36R
6HR MIN TEMP:  56; 6HR MAX TEMP:  63;

ATLANTA GA     SUNNY     63  55  75 CALM      30.34R
6HR MIN TEMP:  59; 6HR MAX TEMP:  65;

NEW ORLEANS LA CLEAR     70  62  76 E5        30.15R
6HR MIN TEMP:  68; 6HR MAX TEMP:  72;

OKLAHOMA CITY  CLOUDY    61  54  77 SE12      30.01S
6HR MIN TEMP:  59; 6HR MAX TEMP:  65;

ALBUQUERQUE NM CLOUDY    51  48  89 S8        29.94F
6HR MIN TEMP:  50; 6HR MAX TEMP:  56;

SALT LAKE CITY MOCLDY    57  43  59 S8        29.84F
6HR MIN TEMP:  55; 6HR MAX TEMP:  63;

LOS ANGELES CA CLOUDY    58  50  75 CALM      29.98F
6HR MIN TEMP:  56; 6HR MAX TEMP:  58;




USA.gov is the U.S. government's official web portal to all federal, state and local government web resources and services.